Location: A�t Lahcen
(32.8243°N, 5.4246°W)
Time: 02:04:19
(UTC+00:00)

Cosmos 1703 - Pass Details

Date: 27 January 2021
Orbit: 524 x 538 km, 82.5° (Epoch: 26 February)

Event Time Altitude Azimuth Distance (km) Brightness Sun altitude
Exits shadow 05:38:25 25° 359° (N) 1,087 4.7 -21.3°
Maximum altitude 05:40:35 80° 82° (E) 542 3.2 -20.9°
Drops below altitude 10° 05:44:29 10° 171° (S) 1,775 6.1 -20.1°
Sets 05:46:38 0° 173° (S) 2,663 7.0 -19.6°
